Regional Weather Roundup
Issued by NWS

Home | Current Version | Previous Version | Graphics & Text | Print | Product List | Glossary On
Versions: 1 2 3 4 5 6 7 8 9 10 11 12 13 14 15 16 17 18 19 20 21 22 23 24 25 26 27
000
ASUS43 KDMX 200907
RWRIA

WEATHER ROUNDUP FOR IOWA
NATIONAL WEATHER SERVICE DES MOINES IA
400 AM CDT SUN APR 20 2014

NOTE: "FAIR" INDICATES FEW OR NO CLOUDS BELOW 12,000 FEET WITH NO
SIGNIFICANT WEATHER AND/OR OBSTRUCTIONS TO VISIBILITY.

* - THESE STATIONS ARE NOT NWS STATIONS...THUS NOT UNDER NWS
QUALITY CONTROL.  THEY ALSO DO NOT REPORT WEATHER SUCH
AS PRECIPITATION OR FOG.

IAZ001>003-012>014-020>022-031>034-043>046-201000-
   NORTHWEST IOWA

CITY           SKY/WX    TMP DP  RH WIND       PRES   REMARKS
CARROLL *      MOCLDY    64  45  48 S20       30.00S
CHEROKEE *     CLOUDY    55  45  67 CALM      29.99S
DENISON *      MOCLDY    63  45  51 S12       29.99S
LE MARS *      PTCLDY    52  50  93 CALM      29.98S
ORANGE CITY *  PTCLDY    55  39  54 E7        29.99S
SHELDON *      MOCLDY    52  37  58 E5        29.99R
SIOUX CITY     MOCLDY    59  47  64 SE10      29.97S
SPENCER        MOCLDY    52  43  71 NE6       30.00S
STORM LAKE *   MOCLDY    59  45  58 S9        30.01S
$$

IAZ055>058-069>071-079>083-090>094-201000-
   SOUTHWEST IOWA

CITY           SKY/WX    TMP DP  RH WIND       PRES   REMARKS
ATLANTIC *     CLOUDY    63  45  51 S13G18    30.02S
AUDUBON *      PTCLDY    63  43  48 S12       30.03S
CLARINDA *     PTCLDY    63  46  55 S10       30.06S
COUNCIL BLFS * CLEAR     64  48  55 S15G21    29.99F
CRESTON *      CLOUDY    61  45  55 S14       30.06S
HARLAN  *      PTCLDY    63  45  51 S13       30.04S
LAMONI         PTCLDY    58  43  57 S9        30.08S
RED OAK *      MOCLDY    61  46  59 S8        30.04R
SHENANDOAH *   CLEAR     61  46  59 SE9       30.04S
$$

IAZ047>049-059>061-072>074-084-201000-
   CENTRAL IOWA

CITY           SKY/WX    TMP DP  RH WIND       PRES   REMARKS
AMES           LGT RAIN  58  46  64 S6        30.05R
ANKENY *       CLOUDY    59  46  63 SE6       30.06S
CHARITON *     CLOUDY    57  43  58 S9        30.08S
DES MOINES     CLOUDY    61  44  53 S8        30.06S
GRINNELL*      MOCLDY    57  41  54 S13       30.09R
KNOXVILLE *    CLOUDY    59  41  51 S6        30.08S
MARSHALLTOWN   MOCLDY    59  41  51 S10       30.06S
NEWTON *       MOCLDY    54  41  62 S9        30.08S
PELLA *        MOCLDY    59  41  51 S9        30.09S
PERRY *        CLOUDY    63  43  48 S10       30.03S
$$

IAZ004>006-015-016-023>025-035-036-201000-
   NORTH CENTRAL IOWA

CITY           SKY/WX    TMP DP  RH WIND       PRES   REMARKS
ALGONA *       CLOUDY    61  46  59 S7        30.01F
CLARION *      CLOUDY    61  46  59 S13       30.02S
ESTHERVILLE    CLOUDY    53  46  77 N6        30.00F
FORT DODGE *   CLOUDY    63  45  51 S12       30.03R
MASON CITY     CLOUDY    57  47  69 S8        30.03F
FOREST CITY *  CLOUDY    59  46  63 CALM      30.03R
IOWA FALLS *   CLOUDY    59  45  58 S9        30.05S
$$

IAZ007>011-017>019-026>030-037>042-050>054-066-201000-
   NORTHEAST IOWA

CITY           SKY/WX    TMP DP  RH WIND       PRES   REMARKS
CEDAR RAPIDS   CLOUDY    57  41  55 S10       30.10S
CHARLES CITY * CLOUDY    59  45  58 S13       30.06R
CLINTON *      PTCLDY    48  36  61 SE9       30.18S
DECORAH *      CLOUDY    61  39  44 S10G22    30.06S
DUBUQUE        CLOUDY    52  39  61 S9        30.13S
MONTICELLO *   CLOUDY    57  41  54 S9        30.13R
OELWEIN *      CLOUDY   N/A N/A N/A S16       30.09S
WATERLOO       MOCLDY    58  40  51 S12       30.06F
$$

IAZ064-065-067-068-078-201000-
   EAST CENTRAL IOWA

CITY           SKY/WX    TMP DP  RH WIND       PRES   REMARKS
DAVENPORT      PTCLDY    56  39  53 S12       30.15F
IOWA CITY      CLOUDY    50  41  71 SE3       30.14R
MT. PLEASANT * PTCLDY    57  41  54 S10       30.13S
MUSCATINE *    CLEAR     48  39  71 CALM      30.14S
QUAD CITIES    CLEAR     54  38  54 S8        30.14S
$$

IAZ062-063-075>077-085>089-095>099-201000-
   SOUTHEAST IOWA

CITY           SKY/WX    TMP DP  RH WIND       PRES   REMARKS
BURLINGTON     CLEAR     56  41  57 S9        30.14S
FAIRFIELD *    CLOUDY    57  41  54 S13       30.12S
FORT MADISON * CLEAR     55  43  62 S10       30.15S
KEOKUK *       CLEAR     59  43  55 SE8       30.14R
OSKALOOSA *      N/A     55  43  62 S10       30.10S
CENTERVILLE *  CLEAR     54  41  62 SE8       30.12S
OTTUMWA        CLOUDY    58  40  51 S15       30.10R
WASHINGTON *   CLEAR     57  43  58 S10       30.12S
$$

ABBREVIATIONS USED IN REMARKS
   TC - TEMPERATURES IN CELSIUS
  WCI - WIND CHILL INDEX
   HX - HEAT INDEX
  VSB - VISIBILITY
$$




USA.gov is the U.S. government's official web portal to all federal, state and local government web resources and services.